Weather History for Billings, MT

Change the Weather History Date:

Wednesday, November 7, 2012

  Actual Average Record
Temperature  
Mean Temperature 59 °F 40 °F  
Max Temperature 73 °F 50 °F 77 °F (1999)
Min Temperature 45 °F 30 °F 0 °F (1936)
Degree Days  
Heating Degree Days 6 25  
Month to date heating degree days 103 168  
Since 1 July heating degree days 748 920  
Cooling Degree Days 0 0  
Month to date cooling degree days 0 0  
Year to date cooling degree days 958 636  
Growing Degree Days 10 (Base 50)    
Moisture  
Dew Point 30 °F    
Average Humidity 37    
Maximum Humidity 54    
Minimum Humidity 20    
Precipitation  
Precipitation 0.00 in 0.02 in 0.33 in (1983)
Month to date precipitation 0.09 0.15  
Year to date precipitation 6.31 12.68  
Snow  
Snow 0.00 in 0.20 in 2.40 in (1950)
Month to date snowfall 0.0 1.2  
Since 1 July snowfall 4.1 6.4  
Since 1 September snowfall 4.1 6.4  
Snow Depth 0.00 in    
Sea Level Pressure  
Sea Level Pressure 29.79 in    
Wind  
Wind Speed 14 mph (WSW)    
Max Wind Speed 23 mph    
Max Gust Speed 29 mph    
Visibility 10 miles    
Events      
T = Trace of Precipitation, MM = Missing Value Source: NWS Daily Summary

Daily Weather History Graph

Daily Weather History Graph

Search for Another Location

Airport:

Trip Planner

Search our weather history database for the weather conditions in past years. The results will help you decide how hot, cold, wet, or windy it might be!

Date:

Astronomy

Nov. 07, 2012 Rise Set
Actual Time 7:03 AM MST 4:51 PM MST
Civil Twilight 6:31 AM MST 5:23 PM MST
Nautical Twilight 5:56 AM MST 5:58 PM MST
Astronomical Twilight 5:21 AM MST 6:33 PM MST
Moon No Moon Rise 1:21 PM MST (11/7)
Length of Visible Light 10h 51m
Length of Day
9h 47m
Last Quarter, 42% of the Moon is Illuminated
Nov 7
Last Quarter
Nov 13
New
Nov 20
First Quarter
Nov 28
Full
Dec 6
Last Quarter

Hourly Weather History & Observations

Time (MST) Temp. Windchill Dew Point Humidity Pressure Visibility Wind Dir Wind Speed Gust Speed Precip Events Conditions
12:53 AM 54.0 °F - 30.0 °F 40% 29.90 in 10.0 mi SW 11.5 mph - N/A   Clear
1:53 AM 55.0 °F - 30.0 °F 38% 29.86 in 10.0 mi WSW 18.4 mph - N/A   Clear
2:53 AM 57.0 °F - 28.9 °F 34% 29.84 in 10.0 mi WSW 20.7 mph - N/A   Clear
3:53 AM 55.0 °F - 28.9 °F 37% 29.83 in 10.0 mi WSW 18.4 mph - N/A   Clear
4:53 AM 55.9 °F - 28.9 °F 36% 29.83 in 10.0 mi WSW 16.1 mph - N/A   Clear
5:53 AM 55.0 °F - 28.0 °F 35% 29.82 in 10.0 mi WSW 15.0 mph - N/A   Clear
6:53 AM 54.0 °F - 28.0 °F 37% 29.83 in 10.0 mi WSW 12.7 mph - N/A   Partly Cloudy
7:53 AM 54.0 °F - 28.9 °F 38% 29.82 in 10.0 mi WSW 13.8 mph - N/A   Partly Cloudy
8:53 AM 57.0 °F - 28.9 °F 34% 29.78 in 10.0 mi WSW 17.3 mph - N/A   Partly Cloudy
9:53 AM 62.1 °F - 30.0 °F 30% 29.75 in 10.0 mi WSW 15.0 mph - N/A   Partly Cloudy
10:53 AM 64.0 °F - 30.0 °F 28% 29.73 in 10.0 mi WSW 11.5 mph - N/A   Partly Cloudy
11:53 AM 70.0 °F - 30.0 °F 23% 29.68 in 10.0 mi SSW 10.4 mph 19.6 mph N/A   Partly Cloudy
12:53 PM 72.0 °F - 28.0 °F 20% 29.65 in 10.0 mi SW 11.5 mph 20.7 mph N/A   Partly Cloudy
1:53 PM 71.1 °F - 28.0 °F 20% 29.64 in 10.0 mi SW 17.3 mph 23.0 mph N/A   Partly Cloudy
2:53 PM 71.1 °F - 28.9 °F 21% 29.64 in 10.0 mi SSW 10.4 mph - N/A   Scattered Clouds
3:53 PM 69.1 °F - 30.9 °F 24% 29.65 in 10.0 mi Calm Calm - N/A   Scattered Clouds
4:53 PM 66.9 °F - 28.9 °F 24% 29.65 in 10.0 mi West 17.3 mph - N/A   Scattered Clouds
5:51 PM 57.2 °F - 37.4 °F 48% 29.78 in 10.0 mi North 20.7 mph 27.6 mph N/A   Mostly Cloudy
5:53 PM 57.9 °F - 37.9 °F 47% 29.75 in 10.0 mi North 20.7 mph 27.6 mph N/A   Mostly Cloudy
6:53 PM 54.0 °F - 37.0 °F 53% 29.79 in 10.0 mi NE 13.8 mph 24.2 mph N/A   Scattered Clouds
7:53 PM 52.0 °F - 32.0 °F 47% 29.85 in 10.0 mi NNE 11.5 mph - N/A   Mostly Cloudy
8:53 PM 50.0 °F - 28.9 °F 44% 29.89 in 10.0 mi NE 12.7 mph - N/A   Scattered Clouds
9:53 PM 46.9 °F - 28.0 °F 48% 29.91 in 10.0 mi NNE 9.2 mph - N/A   Overcast
10:53 PM 46.0 °F 41.4 °F 28.0 °F 50% 29.94 in 10.0 mi ENE 9.2 mph - N/A   Overcast
11:53 PM 46.0 °F 41.4 °F 27.0 °F 47% 29.95 in 10.0 mi NE 9.2 mph - N/A   Overcast